Date,TemperatureHighF,TemperatureAvgF,TemperatureLowF,DewpointHighF,DewpointAvgF,DewpointLowF,HumidityHigh,HumidityAvg,HumidityLow,PressureMaxIn,PressureMinIn,WindSpeedMaxMPH,WindSpeedAvgMPH,GustSpeedMaxMPH,PrecipitationSumIn
2013-12-1,61.7,50.9,45.2,35.0,28.9,19.0,60,44,24,30.28,30.18,3,0,6,0.00
2013-12-2,63.3,52.2,43.1,29.0,22.4,15.0,51,32,22,30.20,29.92,1,0,6,0.00
2013-12-3,53.8,45.7,40.5,43.0,32.0,20.0,97,63,33,29.92,29.71,4,0,9,0.00
2013-12-4,41.4,34.6,28.1,40.0,30.7,24.0,97,86,53,30.00,29.73,0,0,9,0.00
2013-12-5,39.1,32.1,26.9,31.0,27.8,22.0,95,84,57,30.16,29.99,5,0,8,0.00
2013-12-6,37.1,31.3,25.4,31.0,27.5,22.0,96,86,72,30.26,30.16,0,0,6,0.00
2013-12-7,34.1,31.4,28.4,33.0,29.9,27.0,96,94,84,30.19,30.08,0,0,9,0.00
2013-12-8,34.1,30.4,27.0,31.0,28.1,24.0,96,91,86,30.26,30.15,0,0,3,0.00
2013-12-9,39.3,29.9,22.3,25.0,20.0,11.0,90,69,36,30.43,30.25,4,0,8,0.00
2013-12-10,51.8,40.2,30.5,26.0,17.1,9.0,65,42,22,30.41,30.21,4,0,6,0.00
2013-12-11,55.4,45.8,37.9,25.0,12.8,3.0,52,27,17,30.24,30.19,4,0,7,0.00
2013-12-12,54.2,44.6,36.5,24.0,20.2,13.0,62,39,25,30.25,30.16,2,0,7,0.00
2013-12-13,52.1,43.3,36.7,30.0,22.8,17.0,57,45,37,30.30,30.16,3,0,5,0.00
2013-12-14,56.2,44.4,36.7,22.0,17.8,13.0,50,35,23,30.39,30.28,4,0,5,0.00
2013-12-15,67.6,54.0,40.0,35.0,19.8,11.0,42,27,15,30.36,30.20,3,0,5,0.00
2013-12-16,73.2,61.5,51.5,36.0,24.6,20.0,42,25,16,30.22,30.12,5,0,6,0.00
2013-12-17,71.8,63.2,56.8,34.0,23.8,18.0,40,23,16,30.14,29.99,4,0,6,0.00
2013-12-18,63.8,52.9,35.4,33.0,23.8,19.0,90,34,22,29.98,29.77,2,0,9,0.00
2013-12-19,38.0,35.1,31.9,36.0,33.8,31.0,97,95,84,29.82,29.69,2,0,7,0.00
2013-12-20,46.3,36.5,29.9,37.0,31.2,28.0,94,82,61,30.01,29.81,4,0,7,0.00
2013-12-21,46.2,38.1,30.5,41.0,33.2,27.0,96,83,54,30.17,29.96,5,0,6,0.00
2013-12-22,54.3,44.8,36.7,32.0,28.6,25.0,68,54,38,30.34,30.16,4,0,8,0.00
2013-12-23,58.7,47.3,38.1,34.0,28.9,21.0,68,51,31,30.40,30.30,4,0,6,0.00
2013-12-24,52.9,49.6,45.7,31.0,22.8,18.0,45,35,27,30.27,30.17,3,0,5,0.00
2013-12-25,62.0,51.1,39.9,25.0,16.4,7.0,48,26,14,30.28,30.19,4,0,7,0.00
2013-12-26,61.6,50.3,39.9,18.0,9.5,1.0,36,20,11,30.25,30.16,5,0,6,0.00
2013-12-27,64.8,54.1,46.9,19.0,11.2,2.0,27,19,11,30.23,30.10,5,0,6,0.00
2013-12-28,59.4,51.7,43.3,23.0,13.4,2.0,37,22,12,30.09,29.95,9,0,20,0.00
2013-12-29,56.4,47.5,38.1,15.0,7.5,-21.0,32,20,4,30.22,30.01,4,0,14,0.00
2013-12-30,61.5,51.3,38.7,19.0,5.9,0.0,29,16,9,30.34,30.21,4,0,6,0.00
2013-12-31,60.9,51.3,42.0,17.0,12.5,5.0,34,23,11,30.23,30.13,1,0,6,0.00